Flag for India Weather past 2 weeks in Vasai-Virar, Maharashtra, India

Now
88 °F

Clear.


Feels Like: 88 °F
Forecast: 70 / 89 °F
Wind: 7 mph from Northwest

Location: Bombay / Santacruz

Current Time: Jan 30, 2015 at 6:22:00 PM

Latest Report: Jan 30, 2015 at 4:40 PM


Visibility: 2 mi

Pressure: 29.92 "Hg

Humidity: 43%

Dew point: 63 °F

Location of Vasai-VirarLocation

Historic Weather in Vasai-Virar — Graph

°F

Vasai-Virar temperature yesterday

Maximum temperature yesterday: 86 °F (at 12:40 PM)
Minimum temperature yesterday: 68 °F (at 6:40 AM)
Average temperature yesterday: 77 °F

Past Weeks' High & Low Weather Summary

 TemperatureHumidityPressure
High90 °F (Jan 30, 1:40 PM)94% (Jan 20, 4:40 AM)30.09 "Hg (Jan 20, 4:40 AM)
Low68 °F (Jan 27, 5:40 AM)25% (Jan 17, 1:40 PM)29.80 "Hg (Jan 28, 2:40 PM)
Average77 °F58%29.95 "Hg
* Reported Jan 15 4:40 PM — Jan 30 4:40 PM, Vasai-Virar, Weather by CustomWeather, © 2014

Note: Actual official high and low records may vary slightly from our data, if they occured in-between our weather recording intervals... More about our weather records

Advertising

Vasai-Virar weather history for previous 24 hours

 ConditionsComfort  
Time TempWeatherWind HumidityBarometerVisibility
4:40 PM
Jan 30
88 °FClear.7 mph43%29.92 "Hg2 mi
3:40 PM86 °FClear.10 mph40%29.92 "Hg3 mi
2:40 PM88 °FClear.5 mph25%29.95 "Hg3 mi
1:40 PM90 °FClear.10 mph31%29.98 "Hg2 mi
12:40 PM88 °FClear.13 mph35%30.01 "Hg2 mi
11:40 AM84 °FClear.10 mph40%30.01 "Hg2 mi
10:40 AM82 °FClear.12 mph40%30.04 "Hg2 mi
9:40 AM79 °FClear.14 mph48%30.01 "Hg2 mi
8:40 AM75 °FClear.10 mph54%30.01 "Hg2 mi
7:40 AM73 °FClear.13 mph53%29.98 "Hg2 mi
6:40 AM73 °FClear.12 mph53%29.95 "Hg2 mi
5:40 AM75 °FClear.12 mph50%29.92 "Hg2 mi
4:40 AM77 °FClear.10 mph54%29.92 "Hg2 mi
3:40 AM77 °FHaze.7 mph54%29.92 "Hg2 mi
2:40 AM75 °FHaze.5 mph54%29.92 "Hg2 mi
1:40 AM73 °FHaze.6 mph69%29.95 "Hg2 mi
12:40 AM75 °FHaze.No wind61%29.95 "Hg2 mi
11:40 PM
Jan 29
75 °FHaze.No wind61%29.95 "Hg2 mi
10:40 PM77 °FHaze.3 mph57%29.95 "Hg2 mi
9:40 PM77 °FHaze.5 mph61%29.95 "Hg2 mi
8:40 PM77 °FClear.6 mph61%29.95 "Hg2 mi
7:40 PM79 °FClear.6 mph61%29.92 "Hg2 mi
6:40 PM81 °FClear.5 mph58%29.89 "Hg2 mi
Weather by CustomWeather, © 2014

See weather overviewHow to use our weather pages